Content
SEND FEEDBACK

Daily
Averages
Monthly
Summary
United States of America

PIERCE, NEBRASKA


Home > North America > United States > Nebraska
Elevation: 1581 feet     Latitude: 42 12N     Longitude: 097 32W

WEATHER
 
SELECT A DAY
Number of Records: 244,280;   Date Range: 1/1/95 - 7/7/14
 
SHARE

PRINT THIS DATA

[ ← Previous Day ]
WEATHER ALMANAC - JANUARY 31, 2013
[ Next Day → ]
[ °C ]   °F
Weather ElementAverageHighLow
Temperature3.8 °F7 °F (1:56 am)-0.9 °F (9:56 pm)
Dewpoint-6.8 °F1 °F (1:56 am)-9.4 °F (2:11 pm)
Humidity62.1 %77 % (1:56 am)48 % (2:11 pm)
Barometer30.29 in30.48 in (10:56 pm)30.02 in (1:56 am)
Wind Speed16.4 mph29.9 mph (8:56 am)
Wind Gust43.7 mph (10:18 am)
Weather ElementAverage
Visibility9.5 mi
Wind DirectionNW (313.2 °)

Weather ElementTotal
Precipitation---
Heating Degree Days62 (Base 65)
Averaged from 25 records on January 31, 2013
WEATHER CONDITIONS BREAKOUT
WIND DIRECTION BREAKOUT
WEATHER BY HOUR - JANUARY 31, 2013
[ °C ]   °F
Local TimeTemperatureDewpointHumidityBarometerVisibilityWind DirectionWind SpeedGust SpeedPrecipitationEventsConditions
1:56 AM7.0 °F1.0 °F77 %30.02 in10.0 miNW (310°)11.5 mphClear
2:56 AM7.0 °F0.0 °F73 %30.04 in10.0 miNW (310°)12.7 mphClear
3:56 AM6.1 °F0.0 °F76 %30.06 in10.0 miNW (310°)12.7 mphScattered Clouds
4:56 AM6.1 °F-2.0 °F69 %30.08 in10.0 miNW (320°)15.0 mphPartly Cloudy
5:56 AM5.0 °F-5.1 °F63 %30.10 in10.0 miNW (320°)15.0 mphScattered Clouds
6:56 AM3.0 °F-7.1 °F63 %30.15 in10.0 miNW (320°)19.6 mphMostly Cloudy
7:56 AM1.9 °F-7.1 °F66 %30.18 in10.0 miNW (320°)18.4 mph23.0 mphMostly Cloudy
8:56 AM3.0 °F-7.1 °F63 %30.22 in10.0 miNW (320°)29.9 mph41.4 mphMostly Cloudy
9:56 AM3.9 °F-9.0 °F55 %30.29 in10.0 miNW (310°)29.9 mph42.6 mph0.00 inScattered Clouds
10:04 AM3.2 °F-5.8 °F66 %30.19 in2.5 miNNW (330°)25.3 mph39.1 mph0.00 inSnowLight Snow
10:18 AM3.2 °F-7.6 °F61 %30.19 in9.0 miNW (320°)27.6 mph43.7 mph0.00 inMostly Cloudy
10:56 AM3.9 °F-9.0 °F55 %30.33 in10.0 miNW (320°)27.6 mph35.7 mph0.00 inOvercast
11:56 AM6.1 °F-7.1 °F55 %30.35 in6.0 miNW (320°)24.2 mph33.4 mphSnowBlowing Snow
12:56 PM7.0 °F-8.0 °F51 %30.35 in10.0 miNW (320°)25.3 mph33.4 mphMostly Cloudy
2:11 PM6.8 °F-9.4 °F48 %30.25 in10.0 miNW (320°)20.7 mph32.2 mphScattered Clouds
2:56 PM7.0 °F-8.0 °F51 %30.38 in10.0 miNW (320°)18.4 mph28.8 mphClear
3:56 PM6.1 °F-9.0 °F50 %30.39 in10.0 miNW (320°)17.3 mph26.5 mphClear
4:56 PM5.0 °F-9.0 °F52 %30.40 in10.0 miNW (320°)15.0 mph24.2 mphClear
5:56 PM3.0 °F-9.0 °F57 %30.42 in10.0 miNW (310°)11.5 mphClear
6:56 PM1.9 °F-9.0 °F60 %30.44 in10.0 miNW (320°)6.9 mphClear
7:56 PM1.0 °F-8.0 °F66 %30.45 in10.0 miNNW (330°)6.9 mphClear
8:56 PM0.0 °F-9.0 °F66 %30.47 in10.0 miWNW (300°)3.5 mphClear
9:56 PM-0.9 °F-9.0 °F69 %30.47 in10.0 miNW (320°)4.6 mphClear
10:56 PM-0.9 °F-8.0 °F72 %30.48 in10.0 miWSW (250°)5.8 mphOvercast
11:56 PM0.0 °F-8.0 °F69 %30.48 in10.0 miWest (270°)5.8 mphMostly Cloudy
Hourly data recorded from KOFK, located miles away from Pierce, Nebraska







STORIES FROM OUR PARTNERS